Regional Weather Roundup
Issued by NWS

Home | Current Version | Previous Version | Graphics & Text | Print | Product List | Glossary On
Versions: 1 2 3 4 5 6 7 8 9 10 11 12 13 14 15 16 17 18 19 20 21 22 23 24 25 26 27 28 29 30 31 32 33 34 35 36 37 38 39 40 41 42 43 44 45 46 47 48 49 50
000
ASUS43 KLOT 222200
RWRIL

ILLINOIS REGIONAL WEATHER ROUNDUP
NATIONAL WEATHER SERVICE CHICAGO/ROMEOVILLE IL
500 PM CDT TUE JUL 22 2014

NOTE: "FAIR" INDICATES FEW OR NO CLOUDS BELOW 12,000 FEET WITH NO
SIGNIFICANT WEATHER AND/OR OBSTRUCTIONS TO VISIBILITY.

* THESE STATIONS ARE NOT UNDER NWS QUALITY CONTROL. THEY ALSO MAY NOT
  REPORT WEATHER SUCH AS PRECIPITATION OR FOG.

ILZ001-002-007-009-015-016-024-222300-
NORTHWEST ILLINOIS

CITY           SKY/WX    TMP DP  RH WIND       PRES   REMARKS
MOLINE         PTSUNNY   84  77  79 W6        29.96R HX  94
STERLING*      MOSUNNY   90  79  70 W3        29.94F HX 105
$$

ILZ003-004-008-010-011-017-018-222300-
NORTH CENTRAL ILLINOIS

CITY           SKY/WX    TMP DP  RH WIND       PRES   REMARKS
ROCKFORD       MOSUNNY   89  77  67 SW7       29.94F HX 101
FREEPORT*      SUNNY     86  78  76 W6        29.96F HX  98
$$

ILZ005-006-012>014-019>023-222300-
NORTHEAST ILLINOIS

CITY           SKY/WX    TMP DP  RH WIND       PRES   REMARKS
CHICAGO-OHARE  CLOUDY    88  71  57 W10       29.94R HX  94
CHICAGO-MIDWAY CLOUDY    89  74  60 SW15      29.95R HX  98
AURORA         MOSUNNY   88  74  63 SW12      29.95F HX  96
LANSING*       PTSUNNY   86  71  61 SW16G24   29.98R HX  91
WAUKEGAN       CLOUDY    86  73  65 SW9       29.93S HX  93
DUPAGE AIRPORT MOSUNNY   90  74  59 SW15      29.95F HX  99
WHEELING       CLOUDY    90  73  57 SW8G16    29.94F HX  98
NORTHERLY ISL    N/A     87  70  56 S6          N/A  HX  92
$$

LMZ740>746-222300-
SOUTHERN LAKE MICHIGAN

STATION/POSITION SKY/WX   TEMP    WIND        PRES    VSBY  WAVE
                          AIR SEA DIR/SP/G                  HT/PER
                          (F)     (DEG/KT/KT) (MB)    (MI)  (FT/S)
SOUTHERN BUOY              73 68  180/ 16/ 17 1012.7F         2/ 4
WAUKEGAN HARBOR            86     250/ 15/ 20 1014.2S
HARRISON CRIB              84     200/ 20/ 24   N/A
BURNHAM HARBOR             87     210/  9/ 19   N/A
CALUMET HARBOR             86     200/ 13/ 20 1013.2R
BURNS HARBOR               85     200/ 16/ 21 1014.6S
MICHIGAN CITY              84     180/ 16/ 21   N/A
$$

ILZ025>027-034>036-040-047-049-050-058-095>099-222300-
WEST-CENTRAL ILLINOIS

CITY           SKY/WX    TMP DP  RH WIND       PRES   REMARKS
QUINCY         CLOUDY    85  76  74 S3        30.00R HX  94
GALESBURG*     PTSUNNY   79  75  86 S10       29.98F HX  83
MACOMB*        CLOUDY    81  76  84 S9        30.03F HX  88
$$

ILZ028>032-037-038-041>044-048-051>054-059>061-222300-
CENTRAL ILLINOIS

CITY           SKY/WX    TMP DP  RH WIND       PRES   REMARKS
PONTIAC        SUNNY     88  75  66 SW12G20   30.00R HX  97
PEORIA         PTSUNNY   87  73  62 SW10      30.01R HX  94
SPRINGFIELD    PTSUNNY   86  74  67 W5        30.01F HX  94
TAYLORVILLE    NOT AVBL
$$

ILZ033-039-045-046-055>057-062-063-222300-
EAST-CENTRAL ILLINOIS

CITY           SKY/WX    TMP DP  RH WIND       PRES   REMARKS
CHAMPAIGN      MOSUNNY   86  71  60 S13       30.02S HX  91
MATTOON        MOSUNNY   85  69  58 S9        30.01S HX  89
$$

ILZ079-100>102-222300-
SOUTHWEST ILLINOIS

CITY           SKY/WX    TMP DP  RH WIND       PRES   REMARKS
ALTON          PTSUNNY   90  73  58 S9        30.01S HX  98
CAHOKIA*       PTSUNNY   91  72  53 S10       29.99F HX  98
SPARTA*        MOSUNNY   86  68  54 S12       30.03S HX  89
$$

ILZ064>066-069>071-074>076-080>082-084>086-088>090-092>094-222300-
SOUTH-CENTRAL ILLINOIS

CITY           SKY/WX    TMP DP  RH WIND       PRES   REMARKS
CARBONDALE     MOSUNNY   87  68  52 S12       30.03F HX  90
MARION         MOSUNNY   88  70  55 SW9       30.05F HX  92
MT. VERNON     SUNNY     88  70  55 S13       30.02F HX  92
SALEM*         SUNNY     90  67  46 S12       30.02S HX  93
$$

ILZ067-068-072-073-078-083-087-091-222300-
SOUTHEAST ILLINOIS

CITY           SKY/WX    TMP DP  RH WIND       PRES   REMARKS
FAIRFIELD*     MOSUNNY   90  73  58 S7        30.02F HX  98
HARRISBURG*    SUNNY     89  68  50 SW7       30.04F HX  92
ROBINSON*      SUNNY     90  71  54 SW8       30.03F HX  96
$$

ABBREVIATIONS USED IN REMARKS
   TC - TEMPERATURE IN CELSIUS
  WCI - WIND CHILL INDEX
   HX - HEAT INDEX
  VSB - VISIBILITY
$$



USA.gov is the U.S. government's official web portal to all federal, state and local government web resources and services.